Location: ????????
(55.0097°N, 38.5678°E)
Time: 04:39:28
(UTC+00:00)

Cosmos 2369 Rocket - Pass Details

Date: 14 April 2024
Orbit: 830 x 850 km, 71.0° (Epoch: 20 May)

Event Time Altitude Azimuth Distance (km) Brightness Sun altitude
Rises 01:30:02 0° 326° (NW) 3,400 5.3 -8.0°
Reaches altitude 10° 01:32:30 10° 328° (NNW) 2,460 4.6 -7.6°
Maximum altitude 01:38:09 78° 55° (NE) 858 2.4 -6.9°
Drops below altitude 10° 01:43:45 10° 142° (SE) 2,436 4.8 -6.2°
Sets 01:46:11 0° 144° (SE) 3,364 5.5 -5.9°
